[[{"header":{"parameterUnit":"m.s-1","parameterCategory":1,"la1":30.2991,"la2":30.254,"lo1":-89.0895,"lo2":-89.0444,"dy":0.0017,"dx":0.0017,"nx":28,"ny":28,"refTime":"2025-09-06T09:00:00:Z","depth":0,"parameterNumber":2,"parameterNumberName":"U-component_of_WINDS"},"data":[0,0,0,0,0,0,0,0,0,0,0,0,0,0,0,0,0,0,0,0,0,0,0,0,0,0,0,0,0,0,0,0,0,0,0,0,0,0,0,0,0,0,0,0,0,0,0,0,0,0,0,0,0,0,0,0,0,0,-0.4963,-0.4962,0,-0.4918,-0.4918,-0.4917,-0.4853,-0.4852,-0.4851,-0.485,-0.4806,-0.4806,-0.4806,0,0,0,0,0,0,0,0,0,0,0,0,0,-0.4996,-0.4996,-0.4963,-0.4962,-0.4962,-0.4918,-0.4918,-0.4917,-0.4853,-0.4852,-0.4851,-0.4849,-0.4806,-0.4806,-0.4806,0,0,0,0,0,0,0,0,0,0,0,0,0,-0.497,-0.4996,-0.4963,-0.4925,-0.4921,-0.4918,-0.4918,-0.4917,-0.4854,-0.4852,-0.485,-0.4849,-0.4806,-0.4806,-0.4806,-0.4837,0,0,-0.4805,-0.4805,0,0,0,0,0,0,0,0,-0.4971,-0.4968,-0.4931,-0.4927,-0.4923,-0.4889,-0.4913,-0.489,-0.4854,-0.4879,-0.485,-0.4848,-0.4835,-0.4832,-0.4828,-0.4835,-0.4833,-0.4805,-0.4805,-0.4805,-0.4805,0,0,0,0,0,0,0,-0.4973,-0.497,-0.4945,-0.493,-0.4926,-0.4911,-0.4905,-0.4908,-0.4867,-0.4877,-0.4872,-0.4868,-0.4833,-0.4828,-0.4826,-0.4833,-0.4805,-0.4805,-0.4805,-0.4804,-0.4866,-0.4867,0,0,0,0,0,0,-0.498,-0.4972,-0.4947,-0.4944,-0.4943,-0.4911,-0.4905,-0.4902,-0.4867,-0.486,-0.4869,-0.4865,-0.4829,-0.4827,-0.4824,-0.486,-0.4805,-0.4804,-0.4804,-0.4864,-0.4866,-0.4868,0,0,0,0,0,0,-0.4981,-0.4979,-0.4948,-0.4957,-0.4952,-0.4913,-0.491,-0.4902,-0.4897,-0.4861,-0.4853,-0.4872,-0.4828,-0.4825,-0.4835,-0.4858,-0.4804,-0.4804,-0.4862,-0.4864,-0.4867,-0.4932,0,0,0,0,0,0,-0.4982,-0.4979,-0.499,-0.4957,-0.4951,-0.4959,-0.4911,-0.4902,-0.4897,-0.4891,-0.4861,-0.4855,-0.4826,-0.4835,-0.4835,-0.4856,-0.4804,-0.486,-0.4863,-0.4866,-0.4927,-0.4936,-0.4944,0,0,0,0,0,-0.4984,-0.501,-0.4991,-0.4988,-0.4964,-0.496,-0.4957,-0.4923,-0.4899,-0.491,-0.4887,-0.4856,-0.4855,-0.4837,-0.4835,-0.4858,-0.4858,-0.4862,-0.4866,-0.4924,-0.4934,-0.4943,0,0,0,0,0,0,-0.5048,-0.5005,-0.4984,-0.5,-0.4984,-0.495,-0.4963,-0.4935,-0.4926,-0.4921,-0.488,-0.4874,-0.4889,-0.4874,-0.4855,-0.4887,-0.4852,-0.4856,-0.4896,-0.4906,-0.4914,-0.4918,-0.4804,0,0,0,0,0,-0.5064,-0.5063,-0.5026,-0.5045,-0.5038,-0.5002,-0.4999,-0.4974,-0.4956,-0.4949,-0.4927,-0.4911,-0.4908,-0.4906,-0.4901,-0.4925,-0.4918,-0.4939,-0.4948,-0.4955,-0.4958,-0.4971,-0.4981,-0.4881,-0.4881,-0.4881,0,0,-0.5097,-0.5073,-0.5076,-0.5057,-0.5042,-0.5043,-0.4997,-0.5,-0.5001,-0.495,-0.4958,-0.4941,-0.4921,-0.4939,-0.4946,-0.4927,-0.4985,-0.496,-0.4965,-0.4965,-0.4976,-0.4986,-0.4994,-0.4883,-0.4883,-0.4883,0,0,-0.5158,-0.514,-0.5153,-0.5139,-0.5117,-0.5093,-0.5096,-0.5066,-0.5053,-0.506,-0.5022,-0.5023,-0.5017,-0.5005,-0.4998,-0.5056,-0.5027,-0.5055,-0.5098,-0.5111,-0.5119,-0.5126,-0.5148,-0.5156,-0.5059,-0.5059,-0.5059,0,-0.5202,-0.5201,-0.5164,-0.517,-0.5163,-0.5117,-0.5131,-0.5119,-0.5097,-0.5094,-0.5073,-0.5066,-0.5049,-0.5063,-0.5078,-0.5073,-0.5077,-0.5058,-0.5121,-0.5127,-0.5133,-0.5153,-0.5161,-0.5063,-0.5063,-0.5062,-0.5062,0,-0.5257,-0.5258,-0.5272,-0.5251,-0.5246,-0.5256,-0.5221,-0.5221,-0.5197,-0.5175,-0.5184,-0.5163,-0.5152,-0.5154,-0.513,-0.5166,-0.5155,-0.5128,-0.5092,-0.5147,-0.5165,-0.5172,-0.5068,-0.5067,-0.5066,-0.5065,0,0,-0.5357,-0.5315,-0.5321,-0.5312,-0.5284,-0.5284,-0.5293,-0.5282,-0.5284,-0.527,-0.5277,-0.5273,-0.5249,-0.5241,-0.5216,-0.5227,-0.5276,-0.5199,-0.5198,-0.5215,-0.5314,-0.5335,-0.5345,-0.5257,-0.5258,-0.5259,-0.5316,0,-0.5413,-0.5424,-0.5391,-0.5412,-0.5413,-0.5369,-0.5377,-0.5362,-0.5342,-0.5341,-0.5319,-0.5318,-0.5285,-0.5281,-0.529,-0.5268,-0.5295,-0.5263,-0.5264,-0.5264,-0.527,-0.5354,-0.5376,-0.5431,-0.5323,-0.5324,-0.5325,0,-0.548,-0.5469,-0.549,-0.5462,-0.5461,-0.5468,-0.5457,-0.5456,-0.5438,-0.5423,-0.5415,-0.5386,-0.5393,-0.5359,-0.5369,-0.5348,-0.5346,-0.5336,-0.5337,-0.5336,-0.5298,-0.5356,-0.5447,-0.5456,-0.5336,-0.5335,-0.5334,0,-0.5551,-0.5542,-0.5554,-0.5547,-0.5514,-0.5521,-0.5508,-0.5488,-0.5484,-0.5475,-0.5472,-0.5464,-0.5459,-0.5454,-0.5424,-0.5401,-0.5438,-0.5401,-0.5427,-0.5428,-0.5437,-0.5437,-0.553,-0.5435,-0.5435,-0.5435,-0.5435,0,-0.5618,-0.5632,-0.5586,-0.5593,-0.5608,-0.5571,-0.5587,-0.557,-0.5553,-0.5557,-0.5519,-0.5523,-0.5483,-0.5483,-0.5459,-0.5472,-0.547,-0.5459,-0.5453,-0.5463,-0.5465,-0.5462,-0.5458,-0.5437,-0.5436,-0.5436,-0.5436,0,-0.57,-0.567,-0.5679,-0.5648,-0.564,-0.5653,-0.5627,-0.5633,-0.5611,-0.5616,-0.5616,-0.5582,-0.5581,-0.555,-0.5542,-0.5526,-0.5549,-0.5535,-0.5555,-0.5551,-0.558,-0.5578,-0.5675,-0.5686,-0.5583,-0.5584,-0.5585,0,-0.5745,-0.5755,-0.5725,-0.5725,-0.5713,-0.5713,-0.5709,-0.5673,-0.5671,-0.5652,-0.566,-0.5656,-0.565,-0.565,-0.5626,-0.562,-0.5606,-0.564,-0.5605,-0.5615,-0.5608,-0.5608,-0.5609,-0.5648,-0.565,-0.5651,-0.5651,0,-0.5828,-0.5813,-0.5808,-0.5799,-0.5795,-0.5786,-0.5775,-0.5777,-0.5737,-0.5737,-0.5735,-0.5731,-0.5723,-0.5719,-0.5709,-0.5696,-0.5668,-0.5663,-0.5669,-0.568,-0.5691,-0.5686,-0.5577,-0.5661,-0.566,-0.5659,-0.5659,-0.5658,-0.5894,-0.5901,-0.5881,-0.5878,-0.5866,-0.5856,-0.5861,-0.584,-0.5837,-0.5828,-0.5807,-0.5808,-0.5791,-0.5774,-0.5764,-0.5766,-0.5748,-0.5757,-0.5759,-0.5762,-0.5768,-0.569,-0.5764,-0.5763,-0.5763,-0.5763,-0.5763,0,-0.5976,-0.5961,-0.5958,-0.5944,-0.5941,-0.5914,-0.5901,-0.5901,-0.5903,-0.5889,-0.5884,-0.5883,-0.5879,-0.5855,-0.5849,-0.5855,-0.5842,-0.5855,-0.5854,-0.5852,-0.5783,-0.5779,-0.5865,-0.5865,-0.5865,-0.5865,-0.5865,-0.5865,-0.6018,-0.603,-0.6012,-0.6018,-0.6003,-0.6004,-0.5999,-0.599,-0.5979,-0.5979,-0.5976,-0.5959,-0.5942,-0.5934,-0.5931,-0.5923,-0.5923,-0.5941,-0.593,-0.5866,-0.5857,-0.5847,-0.5843,-0.5941,-0.5941,-0.5998,-0.5999,-0.5999]},{"header":{"parameterUnit":"m.s-1","parameterCategory":1,"la1":30.2991,"la2":30.254,"lo1":-89.0895,"lo2":-89.0444,"dy":0.0017,"dx":0.0017,"nx":28,"ny":28,"refTime":"2025-09-06T09:00:00:Z","depth":0,"parameterNumber":3,"parameterNumberName":"V-component_of_WINDS"},"data":[0,0,0,0,0,0,0,0,0,0,0,0,0,0,0,0,0,0,0,0,0,0,0,0,0,0,0,0,0,0,0,0,0,0,0,0,0,0,0,0,0,0,0,0,0,0,0,0,0,0,0,0,0,0,0,0,0,0,2.7668,2.7668,0,2.766,2.766,2.766,2.7634,2.7634,2.7633,2.7633,2.7624,2.7624,2.7624,0,0,0,0,0,0,0,0,0,0,0,0,0,2.7657,2.7658,2.7668,2.7668,2.7668,2.766,2.766,2.766,2.7634,2.7634,2.7633,2.7632,2.7624,2.7624,2.7625,0,0,0,0,0,0,0,0,0,0,0,0,0,2.7657,2.7658,2.7668,2.7654,2.7653,2.766,2.766,2.766,2.7634,2.7634,2.7633,2.7632,2.7624,2.7624,2.7625,2.7645,0,0,2.7626,2.7626,0,0,0,0,0,0,0,0,2.7657,2.7658,2.7656,2.7655,2.7653,2.7647,2.7653,2.7655,2.7635,2.7641,2.7632,2.7631,2.7632,2.7632,2.7633,2.7645,2.7644,2.7626,2.7626,2.7627,2.7627,0,0,0,0,0,0,0,2.7657,2.7658,2.7665,2.7656,2.7654,2.7647,2.7646,2.7654,2.7642,2.7641,2.7639,2.7638,2.7631,2.7632,2.7632,2.7644,2.7626,2.7626,2.7627,2.7627,2.767,2.7671,0,0,0,0,0,0,2.766,2.7658,2.7665,2.7665,2.7653,2.7648,2.7647,2.765,2.7642,2.764,2.7639,2.7637,2.7632,2.7632,2.7632,2.7653,2.7627,2.7627,2.7627,2.767,2.7671,2.7672,0,0,0,0,0,0,2.7659,2.766,2.7665,2.7661,2.7661,2.7649,2.7653,2.765,2.7651,2.764,2.7638,2.7642,2.7631,2.7631,2.7642,2.7653,2.7627,2.7628,2.7669,2.767,2.7671,2.7698,0,0,0,0,0,0,2.7659,2.7661,2.7669,2.7661,2.7661,2.7676,2.7654,2.7651,2.7652,2.765,2.7643,2.7641,2.763,2.7641,2.7642,2.7653,2.7628,2.7667,2.7669,2.7671,2.7696,2.77,2.7704,0,0,0,0,0,2.7659,2.7677,2.7669,2.767,2.7671,2.7677,2.7677,2.7665,2.7653,2.7661,2.7654,2.7641,2.7652,2.7642,2.7643,2.7655,2.7667,2.7669,2.7671,2.7694,2.7699,2.7704,0,0,0,0,0,0,2.7686,2.7676,2.7667,2.7683,2.7681,2.7672,2.7682,2.7671,2.7672,2.7669,2.7654,2.7653,2.7665,2.7661,2.765,2.7673,2.7657,2.7659,2.7675,2.7679,2.7683,2.7683,2.7628,0,0,0,0,0,2.7694,2.77,2.769,2.7705,2.7705,2.7694,2.7695,2.7686,2.7683,2.7682,2.7676,2.7673,2.7675,2.7677,2.7679,2.7696,2.7693,2.7704,2.7708,2.7711,2.7713,2.7719,2.7723,2.7678,2.7678,2.7678,0,0,2.771,2.7705,2.771,2.7711,2.7708,2.7713,2.7693,2.77,2.7703,2.7683,2.7692,2.7687,2.7683,2.7696,2.7702,2.7693,2.7725,2.7713,2.7716,2.7716,2.7722,2.7726,2.773,2.7679,2.7679,2.7679,0,0,2.7742,2.774,2.7751,2.7749,2.7745,2.7737,2.774,2.7732,2.7728,2.7737,2.7722,2.7726,2.7731,2.7728,2.7727,2.7757,2.7744,2.7758,2.7777,2.7783,2.7787,2.779,2.7799,2.7802,2.776,2.776,2.776,0,2.7763,2.7771,2.7758,2.7766,2.7766,2.7748,2.7759,2.7757,2.7754,2.7754,2.7745,2.775,2.7746,2.7757,2.7764,2.7764,2.7766,2.7758,2.7788,2.779,2.7793,2.7801,2.7805,2.7761,2.7761,2.7761,2.7761,0,2.7795,2.7801,2.781,2.7807,2.7809,2.7818,2.7806,2.7809,2.7799,2.7792,2.7801,2.7795,2.7795,2.7797,2.7789,2.7807,2.7801,2.779,2.7774,2.7799,2.7806,2.781,2.7763,2.7763,2.7762,2.7762,0,0,2.7844,2.7833,2.7837,2.7834,2.7828,2.7832,2.784,2.7839,2.7841,2.784,2.7844,2.7849,2.7838,2.7837,2.7828,2.7834,2.7855,2.7822,2.7821,2.7827,2.7873,2.788,2.7884,2.7848,2.7848,2.7849,2.7873,0,2.7872,2.7885,2.7874,2.7888,2.7892,2.7875,2.7882,2.7878,2.7872,2.7874,2.7866,2.7869,2.7855,2.7854,2.786,2.7852,2.7864,2.785,2.7851,2.7851,2.7851,2.7889,2.7897,2.792,2.7876,2.7876,2.7877,0,2.7908,2.7907,2.7922,2.7913,2.7915,2.7921,2.7919,2.7921,2.7916,2.7911,2.791,2.7898,2.7904,2.7889,2.7896,2.7887,2.7886,2.7882,2.7883,2.7881,2.7865,2.7886,2.7927,2.793,2.7882,2.7881,2.7881,0,2.7939,2.7942,2.7951,2.795,2.7941,2.7945,2.7941,2.7936,2.7936,2.7934,2.7933,2.7933,2.7932,2.7931,2.7919,2.7909,2.7927,2.7911,2.7922,2.7922,2.7925,2.7925,2.7965,2.7928,2.7928,2.7928,2.7927,0,2.7971,2.798,2.7964,2.797,2.7979,2.7966,2.7976,2.797,2.7965,2.7968,2.7954,2.7957,2.7942,2.7943,2.7934,2.794,2.7941,2.7936,2.7933,2.7936,2.7937,2.7935,2.7932,2.7928,2.7928,2.7928,2.7928,0,2.8007,2.7997,2.8005,2.7996,2.7994,2.8001,2.7992,2.7996,2.7989,2.7993,2.7993,2.7981,2.7982,2.797,2.7969,2.7963,2.7973,2.7968,2.7974,2.7972,2.7982,2.7981,2.8021,2.8025,2.7987,2.7988,2.7988,0,2.8028,2.8034,2.8025,2.8027,2.8023,2.8026,2.8026,2.8013,2.8013,2.8007,2.8012,2.8011,2.801,2.8012,2.8003,2.8001,2.7995,2.8009,2.7995,2.7997,2.7993,2.7992,2.7992,2.8012,2.8012,2.8013,2.8013,0,2.8064,2.8059,2.8059,2.8058,2.8058,2.8056,2.8054,2.8055,2.8041,2.8042,2.8042,2.8042,2.804,2.8039,2.8036,2.8031,2.8019,2.8018,2.802,2.8023,2.8025,2.8022,2.7981,2.8017,2.8016,2.8016,2.8016,2.8016,2.8092,2.8096,2.809,2.8091,2.8088,2.8085,2.8088,2.8081,2.8081,2.8079,2.8071,2.8073,2.8066,2.8061,2.8057,2.8057,2.805,2.8054,2.8054,2.8055,2.8056,2.8027,2.8057,2.8057,2.8057,2.8057,2.8057,0,2.8126,2.8122,2.8122,2.8119,2.8119,2.8109,2.8105,2.8105,2.8107,2.8103,2.8102,2.8102,2.8101,2.8091,2.8089,2.8091,2.8085,2.8091,2.809,2.8088,2.8064,2.8061,2.8095,2.8095,2.8095,2.8095,2.8095,2.8095,2.8144,2.815,2.8144,2.8148,2.8144,2.8145,2.8143,2.8141,2.8137,2.8138,2.8137,2.8131,2.8124,2.8121,2.8119,2.8116,2.8115,2.8122,2.8118,2.8094,2.809,2.8087,2.8084,2.8123,2.8123,2.8142,2.8142,2.8142]}]]